Location: Stilling
(56.0622°N, 9.9882°E)
Time: 23:58:01
(UTC+00:00)

Cosmos 1515 Rocket - Pass Details

Date: 13 July 2020
Orbit: 606 x 630 km, 82.5° (Epoch: 03 August)

Event Time Altitude Azimuth Distance (km) Brightness Sun altitude
Rises 21:33:55 0° 350° (N) 2,886 8.7 -8.7°
Reaches altitude 10° 21:36:12 10° 355° (N) 1,980 7.5 -8.9°
Maximum altitude 21:40:29 53° 72° (ENE) 760 4.0 -9.1°
Enters shadow 21:44:23 12° 149° (SSE) 1,822 5.3 -9.4°
